Year,Month,Day,Hour,Minute,Value (Times are PST for temperature in C)
2008,05,16,00,00,11.70
2008,05,16,00,01,11.70
2008,05,16,00,02,11.70
2008,05,16,00,03,11.70
2008,05,16,00,04,11.70
2008,05,16,00,05,11.60
2008,05,16,00,06,11.60
2008,05,16,00,07,11.60
2008,05,16,00,08,11.60
2008,05,16,00,09,11.60
2008,05,16,00,10,11.60
2008,05,16,00,11,11.60
2008,05,16,00,12,11.60
2008,05,16,00,13,11.60
2008,05,16,00,14,11.60
2008,05,16,00,15,11.60
2008,05,16,00,16,11.60
2008,05,16,00,17,11.60
2008,05,16,00,18,11.60
2008,05,16,00,19,11.60
2008,05,16,00,20,11.60
2008,05,16,00,21,11.60
2008,05,16,00,22,11.60
2008,05,16,00,23,11.60
2008,05,16,00,24,11.60
2008,05,16,00,25,11.60
2008,05,16,00,26,11.60
2008,05,16,00,27,11.60
2008,05,16,00,28,11.60
2008,05,16,00,29,11.60
2008,05,16,00,30,11.60
2008,05,16,00,31,11.60
2008,05,16,00,32,11.50
2008,05,16,00,33,11.40
2008,05,16,00,34,11.40
2008,05,16,00,35,11.40
2008,05,16,00,36,11.40
2008,05,16,00,37,11.40
2008,05,16,00,38,11.40
2008,05,16,00,39,11.40
2008,05,16,00,40,11.40
2008,05,16,00,41,11.40
2008,05,16,00,42,11.40
2008,05,16,00,43,11.40
2008,05,16,00,44,11.40
2008,05,16,00,45,11.40
2008,05,16,00,46,11.40
2008,05,16,00,47,11.40
2008,05,16,00,48,11.40
2008,05,16,00,49,11.40
2008,05,16,00,50,11.40
2008,05,16,00,51,11.40
2008,05,16,00,52,11.40
2008,05,16,00,53,11.40
2008,05,16,00,54,11.40
2008,05,16,00,55,11.40
2008,05,16,00,56,11.40
2008,05,16,00,57,11.40
2008,05,16,00,58,11.40
2008,05,16,00,59,11.40
2008,05,16,01,00,11.40
2008,05,16,01,01,11.40
2008,05,16,01,02,11.30
2008,05,16,01,03,11.30
2008,05,16,01,04,11.30
2008,05,16,01,05,11.30
2008,05,16,01,06,11.30
2008,05,16,01,07,11.30
2008,05,16,01,08,11.30
2008,05,16,01,09,11.30
2008,05,16,01,10,11.30
2008,05,16,01,11,11.30
2008,05,16,01,12,11.30
2008,05,16,01,13,11.30
2008,05,16,01,14,11.20
2008,05,16,01,15,11.20
2008,05,16,01,16,11.20
2008,05,16,01,17,11.20
2008,05,16,01,18,11.20
2008,05,16,01,19,11.10
2008,05,16,01,20,11.10
2008,05,16,01,21,11.10
2008,05,16,01,22,11.10
2008,05,16,01,23,11.10
2008,05,16,01,24,11.10
2008,05,16,01,25,11.10
2008,05,16,01,26,11.10
2008,05,16,01,27,11.10
2008,05,16,01,28,11.10
2008,05,16,01,29,11.10
2008,05,16,01,30,11.10
2008,05,16,01,31,11.10
2008,05,16,01,32,11.10
2008,05,16,01,33,11.10
2008,05,16,01,34,11.10
2008,05,16,01,35,11.10
2008,05,16,01,36,11.10
2008,05,16,01,37,11.10
2008,05,16,01,38,11.10
2008,05,16,01,39,11.10
2008,05,16,01,40,11.10
2008,05,16,01,41,11.10
2008,05,16,01,42,11.10
2008,05,16,01,43,11.10
2008,05,16,01,44,10.90
2008,05,16,01,45,10.90
2008,05,16,01,46,10.90
2008,05,16,01,47,10.90
2008,05,16,01,48,10.90
2008,05,16,01,49,10.90
2008,05,16,01,50,10.90
2008,05,16,01,51,10.90
2008,05,16,01,52,10.90
2008,05,16,01,53,10.90
2008,05,16,01,54,10.90
2008,05,16,01,55,10.90
2008,05,16,01,56,10.90
2008,05,16,01,57,10.90
2008,05,16,01,58,10.90
2008,05,16,01,59,10.80
2008,05,16,02,00,10.80
2008,05,16,02,01,10.80
2008,05,16,02,02,10.80
2008,05,16,02,03,10.80
2008,05,16,02,04,10.80
2008,05,16,02,05,10.80
2008,05,16,02,06,10.80
2008,05,16,02,07,10.80
2008,05,16,02,08,10.80
2008,05,16,02,09,10.80
2008,05,16,02,10,10.80
2008,05,16,02,11,10.80
2008,05,16,02,12,10.80
2008,05,16,02,13,10.80
2008,05,16,02,14,10.70
2008,05,16,02,15,10.70
2008,05,16,02,16,10.70
2008,05,16,02,17,10.70
2008,05,16,02,18,10.70
2008,05,16,02,19,10.70
2008,05,16,02,20,10.70
2008,05,16,02,21,10.60
2008,05,16,02,22,10.60
2008,05,16,02,23,10.60
2008,05,16,02,24,10.60
2008,05,16,02,25,10.60
2008,05,16,02,26,10.60
2008,05,16,02,27,10.60
2008,05,16,02,28,10.60
2008,05,16,02,29,10.60
2008,05,16,02,30,10.60
2008,05,16,02,31,10.60
2008,05,16,02,32,10.60
2008,05,16,02,33,10.60
2008,05,16,02,34,10.50
2008,05,16,02,35,10.40
2008,05,16,02,36,10.40
2008,05,16,02,37,10.40
2008,05,16,02,38,10.40
2008,05,16,02,39,10.40
2008,05,16,02,40,10.40
2008,05,16,02,41,10.40
2008,05,16,02,42,10.40
2008,05,16,02,43,10.40
2008,05,16,02,44,10.40
2008,05,16,02,45,10.40
2008,05,16,02,46,10.40
2008,05,16,02,47,10.40
2008,05,16,02,48,10.40
2008,05,16,02,49,10.40
2008,05,16,02,50,10.40
2008,05,16,02,51,10.40
2008,05,16,02,52,10.40
2008,05,16,02,53,10.40
2008,05,16,02,54,10.40
2008,05,16,02,55,10.30
2008,05,16,02,56,10.30
2008,05,16,02,57,10.30
2008,05,16,02,58,10.30
2008,05,16,02,59,10.30
2008,05,16,03,00,10.30
2008,05,16,03,01,10.20
2008,05,16,03,02,10.20
2008,05,16,03,03,10.20
2008,05,16,03,04,10.20
2008,05,16,03,05,10.10
2008,05,16,03,06,10.10
2008,05,16,03,07,10.10
2008,05,16,03,08,10.10
2008,05,16,03,09,10.10
2008,05,16,03,10,10.10
2008,05,16,03,11,10.10
2008,05,16,03,12,10.10
2008,05,16,03,13,10.10
2008,05,16,03,14,10.10
2008,05,16,03,15,10.10
2008,05,16,03,16,10.10
2008,05,16,03,17,10.10
2008,05,16,03,18,10.10
2008,05,16,03,19,10.10
2008,05,16,03,20,10.10
2008,05,16,03,21,10.00
2008,05,16,03,22,9.90
2008,05,16,03,23,9.90
2008,05,16,03,24,9.90
2008,05,16,03,25,9.90
2008,05,16,03,26,9.90
2008,05,16,03,27,9.90
2008,05,16,03,28,9.90
2008,05,16,03,29,9.90
2008,05,16,03,30,9.90
2008,05,16,03,31,9.90
2008,05,16,03,32,9.90
2008,05,16,03,33,9.90
2008,05,16,03,34,9.90
2008,05,16,03,35,9.90
2008,05,16,03,36,9.90
2008,05,16,03,37,9.90
2008,05,16,03,38,9.90
2008,05,16,03,39,9.90
2008,05,16,03,40,9.90
2008,05,16,03,41,9.90
2008,05,16,03,42,9.90
2008,05,16,03,43,9.90
2008,05,16,03,44,9.90
2008,05,16,03,45,9.90
2008,05,16,03,46,9.90
2008,05,16,03,47,9.90
2008,05,16,03,48,9.80
2008,05,16,03,49,9.80
2008,05,16,03,50,9.80
2008,05,16,03,51,9.80
2008,05,16,03,52,9.80
2008,05,16,03,53,9.80
2008,05,16,03,54,9.80
2008,05,16,03,55,9.80
2008,05,16,03,56,9.70
2008,05,16,03,57,9.70
2008,05,16,03,58,9.70
2008,05,16,03,59,9.70
2008,05,16,04,00,9.70
2008,05,16,04,01,9.70
2008,05,16,04,02,9.70
2008,05,16,04,03,9.70
2008,05,16,04,04,9.70
2008,05,16,04,05,9.70
2008,05,16,04,06,9.70
2008,05,16,04,07,9.70
2008,05,16,04,08,9.70
2008,05,16,04,09,9.70
2008,05,16,04,10,9.70
2008,05,16,04,11,9.70
2008,05,16,04,12,9.70
2008,05,16,04,13,9.80
2008,05,16,04,14,9.80
2008,05,16,04,15,9.80
2008,05,16,04,16,9.80
2008,05,16,04,17,9.80
2008,05,16,04,18,9.80
2008,05,16,04,19,9.80
2008,05,16,04,20,9.80
2008,05,16,04,21,9.80
2008,05,16,04,22,9.80
2008,05,16,04,23,9.80
2008,05,16,04,24,9.90
2008,05,16,04,25,9.90
2008,05,16,04,26,9.80
2008,05,16,04,27,9.80
2008,05,16,04,28,9.80
2008,05,16,04,29,9.80
2008,05,16,04,30,9.80
2008,05,16,04,31,9.80
2008,05,16,04,32,9.80
2008,05,16,04,33,9.80
2008,05,16,04,34,9.80
2008,05,16,04,35,9.80
2008,05,16,04,36,9.80
2008,05,16,04,37,9.80
2008,05,16,04,38,9.80
2008,05,16,04,39,9.80
2008,05,16,04,40,9.80
2008,05,16,04,41,9.80
2008,05,16,04,42,9.80
2008,05,16,04,43,9.80
2008,05,16,04,44,9.80
2008,05,16,04,45,9.80
2008,05,16,04,46,9.80
2008,05,16,04,47,9.80
2008,05,16,04,48,9.80
2008,05,16,04,49,9.80
2008,05,16,04,50,9.80
2008,05,16,04,51,9.80
2008,05,16,04,52,9.80
2008,05,16,04,53,9.80
2008,05,16,04,54,9.80
2008,05,16,04,55,9.80
2008,05,16,04,56,9.80
2008,05,16,04,57,9.80
2008,05,16,04,58,9.80
2008,05,16,04,59,9.90
2008,05,16,05,00,9.90
2008,05,16,05,01,9.90
2008,05,16,05,02,9.90
2008,05,16,05,03,9.90
2008,05,16,05,04,10.00
2008,05,16,05,05,10.00
2008,05,16,05,06,9.90
2008,05,16,05,07,10.00
2008,05,16,05,08,10.00
2008,05,16,05,09,9.90
2008,05,16,05,10,9.90
2008,05,16,05,11,9.90
2008,05,16,05,12,9.90
2008,05,16,05,13,9.90
2008,05,16,05,14,9.90
2008,05,16,05,15,9.90
2008,05,16,05,16,9.90
2008,05,16,05,17,9.90
2008,05,16,05,18,9.90
2008,05,16,05,19,9.90
2008,05,16,05,20,9.90
2008,05,16,05,21,9.90
2008,05,16,05,22,9.80
2008,05,16,05,23,9.80
2008,05,16,05,24,9.80
2008,05,16,05,25,9.80
2008,05,16,05,26,9.80
2008,05,16,05,27,9.80
2008,05,16,05,28,9.80
2008,05,16,05,29,9.80
2008,05,16,05,30,9.70
2008,05,16,05,31,9.70
2008,05,16,05,32,9.70
2008,05,16,05,33,9.70
2008,05,16,05,34,9.70
2008,05,16,05,35,9.70
2008,05,16,05,36,9.70
2008,05,16,05,37,9.70
2008,05,16,05,38,9.70
2008,05,16,05,39,9.70
2008,05,16,05,40,9.70
2008,05,16,05,41,9.70
2008,05,16,05,42,9.70
2008,05,16,05,43,9.70
2008,05,16,05,44,9.70
2008,05,16,05,45,9.70
2008,05,16,05,46,9.70
2008,05,16,05,47,9.70
2008,05,16,05,48,9.70
2008,05,16,05,49,9.70
2008,05,16,05,50,9.70
2008,05,16,05,51,9.70
2008,05,16,05,52,9.70
2008,05,16,05,53,9.70
2008,05,16,05,54,9.70
2008,05,16,05,55,9.70
2008,05,16,05,56,9.70
2008,05,16,05,57,9.80
2008,05,16,05,58,9.80
2008,05,16,05,59,9.80
2008,05,16,06,00,9.80
2008,05,16,06,01,9.80
2008,05,16,06,02,9.80
2008,05,16,06,03,9.90
2008,05,16,06,04,9.90
2008,05,16,06,05,9.90
2008,05,16,06,06,9.90
2008,05,16,06,07,9.90
2008,05,16,06,08,9.90
2008,05,16,06,09,9.90
2008,05,16,06,10,9.90
2008,05,16,06,11,9.90
2008,05,16,06,12,9.90
2008,05,16,06,13,10.00
2008,05,16,06,14,10.10
2008,05,16,06,15,10.10
2008,05,16,06,16,10.10
2008,05,16,06,17,10.10
2008,05,16,06,18,10.10
2008,05,16,06,19,10.20
2008,05,16,06,20,10.20
2008,05,16,06,21,10.20
2008,05,16,06,22,10.30
2008,05,16,06,23,10.30
2008,05,16,06,24,10.40
2008,05,16,06,25,10.40
2008,05,16,06,26,10.50
2008,05,16,06,27,10.60
2008,05,16,06,28,10.60
2008,05,16,06,29,10.60
2008,05,16,06,30,10.70
2008,05,16,06,31,10.70
2008,05,16,06,32,10.80
2008,05,16,06,33,10.80
2008,05,16,06,34,10.80
2008,05,16,06,35,10.90
2008,05,16,06,36,10.90
2008,05,16,06,37,10.90
2008,05,16,06,38,11.00
2008,05,16,06,39,11.10
2008,05,16,06,40,11.10
2008,05,16,06,41,11.10
2008,05,16,06,42,11.20
2008,05,16,06,43,11.20
2008,05,16,06,44,11.30
2008,05,16,06,45,11.30
2008,05,16,06,46,11.40
2008,05,16,06,47,11.40
2008,05,16,06,48,11.40
2008,05,16,06,49,11.40
2008,05,16,06,50,11.40
2008,05,16,06,51,11.40
2008,05,16,06,52,11.40
2008,05,16,06,53,11.50
2008,05,16,06,54,11.60
2008,05,16,06,55,11.60
2008,05,16,06,56,11.60
2008,05,16,06,57,11.60
2008,05,16,06,58,11.60
2008,05,16,06,59,11.70
2008,05,16,07,00,11.80
2008,05,16,07,01,11.80
2008,05,16,07,02,12.00
2008,05,16,07,03,12.00
2008,05,16,07,04,12.10
2008,05,16,07,05,12.20
2008,05,16,07,06,12.30
2008,05,16,07,07,12.30
2008,05,16,07,08,12.30
2008,05,16,07,09,12.30
2008,05,16,07,10,12.30
2008,05,16,07,11,12.30
2008,05,16,07,12,12.30
2008,05,16,07,13,12.30
2008,05,16,07,14,12.30
2008,05,16,07,15,12.30
2008,05,16,07,16,12.30
2008,05,16,07,17,12.30
2008,05,16,07,18,12.30
2008,05,16,07,19,12.30
2008,05,16,07,20,12.30
2008,05,16,07,21,12.40
2008,05,16,07,22,12.40
2008,05,16,07,23,12.40
2008,05,16,07,24,12.40
2008,05,16,07,25,12.40
2008,05,16,07,26,12.40
2008,05,16,07,27,12.50
2008,05,16,07,28,12.50
2008,05,16,07,29,12.60
2008,05,16,07,30,12.70
2008,05,16,07,31,12.70
2008,05,16,07,32,12.80
2008,05,16,07,33,12.90
2008,05,16,07,34,12.90
2008,05,16,07,35,13.00
2008,05,16,07,36,13.10
2008,05,16,07,37,13.20
2008,05,16,07,38,13.30
2008,05,16,07,39,13.40
2008,05,16,07,40,13.50
2008,05,16,07,41,13.60
2008,05,16,07,42,13.60
2008,05,16,07,43,13.70
2008,05,16,07,44,13.70
2008,05,16,07,45,13.80
2008,05,16,07,46,13.90
2008,05,16,07,47,14.00
2008,05,16,07,48,14.00
2008,05,16,07,49,14.10
2008,05,16,07,50,14.20
2008,05,16,07,51,14.20
2008,05,16,07,52,14.30
2008,05,16,07,53,14.40
2008,05,16,07,54,14.50
2008,05,16,07,55,14.50
2008,05,16,07,56,14.60
2008,05,16,07,57,14.70
2008,05,16,07,58,14.80
2008,05,16,07,59,14.80
2008,05,16,08,00,14.80
2008,05,16,08,01,14.90
2008,05,16,08,02,15.00
2008,05,16,08,03,15.10
2008,05,16,08,04,15.10
2008,05,16,08,05,15.20
2008,05,16,08,06,15.30
2008,05,16,08,07,15.30
2008,05,16,08,08,15.40
2008,05,16,08,09,15.50
2008,05,16,08,10,15.50
2008,05,16,08,11,15.60
2008,05,16,08,12,15.70
2008,05,16,08,13,15.70
2008,05,16,08,14,15.80
2008,05,16,08,15,15.80
2008,05,16,08,16,15.90
2008,05,16,08,17,15.90
2008,05,16,08,18,16.00
2008,05,16,08,19,16.10
2008,05,16,08,20,16.10
2008,05,16,08,21,16.10
2008,05,16,08,22,16.10
2008,05,16,08,23,16.10
2008,05,16,08,24,16.10
2008,05,16,08,25,16.10
2008,05,16,08,26,16.10
2008,05,16,08,27,16.10
2008,05,16,08,28,16.10
2008,05,16,08,29,16.10
2008,05,16,08,30,16.10
2008,05,16,08,31,16.10
2008,05,16,08,32,16.20
2008,05,16,08,33,16.20
2008,05,16,08,34,16.20
2008,05,16,08,35,16.20
2008,05,16,08,36,16.30
2008,05,16,08,37,16.30
2008,05,16,08,38,16.30
2008,05,16,08,39,16.40
2008,05,16,08,40,16.40
2008,05,16,08,41,16.40
2008,05,16,08,42,16.40
2008,05,16,08,43,16.40
2008,05,16,08,44,16.40
2008,05,16,08,45,16.40
2008,05,16,08,46,16.50
2008,05,16,08,47,16.60
2008,05,16,08,48,16.60
2008,05,16,08,49,16.70
2008,05,16,08,50,16.70
2008,05,16,08,51,16.70
2008,05,16,08,52,16.70
2008,05,16,08,53,16.70
2008,05,16,08,54,16.70
2008,05,16,08,55,16.70
2008,05,16,08,56,16.70
2008,05,16,08,57,16.70
2008,05,16,08,58,16.70
2008,05,16,08,59,16.80
2008,05,16,09,00,16.80
2008,05,16,09,01,16.80
2008,05,16,09,02,16.70
2008,05,16,09,03,16.70
2008,05,16,09,04,16.90
2008,05,16,09,05,17.00
2008,05,16,09,06,17.10
2008,05,16,09,07,17.20
2008,05,16,09,08,17.10
2008,05,16,09,09,17.10
2008,05,16,09,10,17.00
2008,05,16,09,11,17.00
2008,05,16,09,12,17.00
2008,05,16,09,13,17.10
2008,05,16,09,14,17.20
2008,05,16,09,15,17.30
2008,05,16,09,16,17.30
2008,05,16,09,17,17.40
2008,05,16,09,18,17.50
2008,05,16,09,19,17.60
2008,05,16,09,20,17.70
2008,05,16,09,21,17.70
2008,05,16,09,22,17.80
2008,05,16,09,23,17.80
2008,05,16,09,24,17.90
2008,05,16,09,25,17.90
2008,05,16,09,26,18.00
2008,05,16,09,27,18.10
2008,05,16,09,28,18.20
2008,05,16,09,29,18.10
2008,05,16,09,30,18.20
2008,05,16,09,31,18.20
2008,05,16,09,32,18.20
2008,05,16,09,33,18.20
2008,05,16,09,34,18.10
2008,05,16,09,35,18.00
2008,05,16,09,36,17.90
2008,05,16,09,37,17.90
2008,05,16,09,38,18.00
2008,05,16,09,39,18.10
2008,05,16,09,40,18.10
2008,05,16,09,41,18.00
2008,05,16,09,42,17.90
2008,05,16,09,43,17.90
2008,05,16,09,44,17.90
2008,05,16,09,45,17.90
2008,05,16,09,46,17.70
2008,05,16,09,47,17.70
2008,05,16,09,48,17.80
2008,05,16,09,49,17.80
2008,05,16,09,50,17.70
2008,05,16,09,51,17.70
2008,05,16,09,52,17.70
2008,05,16,09,53,17.60
2008,05,16,09,54,17.60
2008,05,16,09,55,17.60
2008,05,16,09,56,17.60
2008,05,16,09,57,17.50
2008,05,16,09,58,17.50
2008,05,16,09,59,17.40
2008,05,16,10,00,17.40
2008,05,16,10,01,17.40
2008,05,16,10,02,17.40
2008,05,16,10,03,17.40
2008,05,16,10,04,17.40
2008,05,16,10,05,17.40
2008,05,16,10,06,17.50
2008,05,16,10,07,17.60
2008,05,16,10,08,17.60
2008,05,16,10,09,17.70
2008,05,16,10,10,17.70
2008,05,16,10,11,17.80
2008,05,16,10,12,17.80
2008,05,16,10,13,17.70
2008,05,16,10,14,17.50
2008,05,16,10,15,17.60
2008,05,16,10,16,17.70
2008,05,16,10,17,17.80
2008,05,16,10,18,17.80
2008,05,16,10,19,17.80
2008,05,16,10,20,17.80
2008,05,16,10,21,17.80
2008,05,16,10,22,17.90
2008,05,16,10,23,17.90
2008,05,16,10,24,17.90
2008,05,16,10,25,17.90
2008,05,16,10,26,18.00
2008,05,16,10,27,18.10
2008,05,16,10,28,18.20
2008,05,16,10,29,18.20
2008,05,16,10,30,18.30
2008,05,16,10,31,18.50
2008,05,16,10,32,18.50
2008,05,16,10,33,18.50
2008,05,16,10,34,18.40
2008,05,16,10,35,18.40
2008,05,16,10,36,18.30
2008,05,16,10,37,18.20
2008,05,16,10,38,18.30
2008,05,16,10,39,18.30
2008,05,16,10,40,18.30
2008,05,16,10,41,18.30
2008,05,16,10,42,18.30
2008,05,16,10,43,18.40
2008,05,16,10,44,18.50
2008,05,16,10,45,18.50
2008,05,16,10,46,18.50
2008,05,16,10,47,18.50
2008,05,16,10,48,18.60
2008,05,16,10,49,18.70
2008,05,16,10,50,18.80
2008,05,16,10,51,18.90
2008,05,16,10,52,18.90
2008,05,16,10,53,19.00
2008,05,16,10,54,19.10
2008,05,16,10,55,19.10
2008,05,16,10,56,19.20
2008,05,16,10,57,19.10
2008,05,16,10,58,19.20
2008,05,16,10,59,19.20
2008,05,16,11,00,19.20
2008,05,16,11,01,19.30
2008,05,16,11,02,19.30
2008,05,16,11,03,19.30
2008,05,16,11,04,19.20
2008,05,16,11,05,19.10
2008,05,16,11,06,19.00
2008,05,16,11,07,19.00
2008,05,16,11,08,19.10
2008,05,16,11,09,19.10
2008,05,16,11,10,19.20
2008,05,16,11,11,19.30
2008,05,16,11,12,19.40
2008,05,16,11,13,19.40
2008,05,16,11,14,19.50
2008,05,16,11,15,19.50
2008,05,16,11,16,19.50
2008,05,16,11,17,19.50
2008,05,16,11,18,19.50
2008,05,16,11,19,19.50
2008,05,16,11,20,19.50
2008,05,16,11,21,19.50
2008,05,16,11,22,19.50
2008,05,16,11,23,19.60
2008,05,16,11,24,19.70
2008,05,16,11,25,19.80
2008,05,16,11,26,19.90
2008,05,16,11,27,20.00
2008,05,16,11,28,20.10
2008,05,16,11,29,20.20
2008,05,16,11,30,20.20
2008,05,16,11,31,20.20
2008,05,16,11,32,20.20
2008,05,16,11,33,20.20
2008,05,16,11,34,20.20
2008,05,16,11,35,20.30
2008,05,16,11,36,20.40
2008,05,16,11,37,20.50
2008,05,16,11,38,20.60
2008,05,16,11,39,20.70
2008,05,16,11,40,20.90
2008,05,16,11,41,21.00
2008,05,16,11,42,21.00
2008,05,16,11,43,21.10
2008,05,16,11,44,21.20
2008,05,16,11,45,21.20
2008,05,16,11,46,21.20
2008,05,16,11,47,21.20
2008,05,16,11,48,21.20
2008,05,16,11,49,21.10
2008,05,16,11,50,21.10
2008,05,16,11,51,21.00
2008,05,16,11,52,21.00
2008,05,16,11,53,20.90
2008,05,16,11,54,20.80
2008,05,16,11,55,20.70
2008,05,16,11,56,20.70
2008,05,16,11,57,20.60
2008,05,16,11,58,20.50
2008,05,16,11,59,20.50
2008,05,16,12,00,20.50
2008,05,16,12,01,20.60
2008,05,16,12,02,20.70
2008,05,16,12,03,20.70
2008,05,16,12,04,20.70
2008,05,16,12,05,20.80
2008,05,16,12,06,20.80
2008,05,16,12,07,20.90
2008,05,16,12,08,20.90
2008,05,16,12,09,21.00
2008,05,16,12,10,21.20
2008,05,16,12,11,21.30
2008,05,16,12,12,21.30
2008,05,16,12,13,21.20
2008,05,16,12,14,21.30
2008,05,16,12,15,21.30
2008,05,16,12,16,21.30
2008,05,16,12,17,21.50
2008,05,16,12,18,21.60
2008,05,16,12,19,21.70
2008,05,16,12,20,21.80
2008,05,16,12,21,21.80
2008,05,16,12,22,21.80
2008,05,16,12,23,21.70
2008,05,16,12,24,21.70
2008,05,16,12,25,21.70
2008,05,16,12,26,21.70
2008,05,16,12,27,21.70
2008,05,16,12,28,21.60
2008,05,16,12,29,21.60
2008,05,16,12,30,21.60
2008,05,16,12,31,21.60
2008,05,16,12,32,21.60
2008,05,16,12,33,21.70
2008,05,16,12,34,21.70
2008,05,16,12,35,21.70
2008,05,16,12,36,21.80
2008,05,16,12,37,21.80
2008,05,16,12,38,21.80
2008,05,16,12,39,21.80
2008,05,16,12,40,21.90
2008,05,16,12,41,22.00
2008,05,16,12,42,22.10
2008,05,16,12,43,22.10
2008,05,16,12,44,22.30
2008,05,16,12,45,22.40
2008,05,16,12,46,22.40
2008,05,16,12,47,22.50
2008,05,16,12,48,22.50
2008,05,16,12,49,22.40
2008,05,16,12,50,22.40
2008,05,16,12,51,22.40
2008,05,16,12,52,22.40
2008,05,16,12,53,22.40
2008,05,16,12,54,22.30
2008,05,16,12,55,22.40
2008,05,16,12,56,22.30
2008,05,16,12,57,22.30
2008,05,16,12,58,22.30
2008,05,16,12,59,22.30
2008,05,16,13,00,22.20
2008,05,16,13,01,22.10
2008,05,16,13,02,22.00
2008,05,16,13,03,21.90
2008,05,16,13,04,21.80
2008,05,16,13,05,21.80
2008,05,16,13,06,21.80
2008,05,16,13,07,21.90
2008,05,16,13,08,21.90
2008,05,16,13,09,21.90
2008,05,16,13,10,21.90
2008,05,16,13,11,21.90
2008,05,16,13,12,21.80
2008,05,16,13,13,21.80
2008,05,16,13,14,21.60
2008,05,16,13,15,21.60
2008,05,16,13,16,21.60
2008,05,16,13,17,21.60
2008,05,16,13,18,21.60
2008,05,16,13,19,21.60
2008,05,16,13,20,21.60
2008,05,16,13,21,21.60
2008,05,16,13,22,21.60
2008,05,16,13,23,21.60
2008,05,16,13,24,21.60
2008,05,16,13,25,21.60
2008,05,16,13,26,21.60
2008,05,16,13,27,21.60
2008,05,16,13,28,21.60
2008,05,16,13,29,21.50
2008,05,16,13,30,21.40
2008,05,16,13,31,21.30
2008,05,16,13,32,21.30
2008,05,16,13,33,21.40
2008,05,16,13,34,21.40
2008,05,16,13,35,21.30
2008,05,16,13,36,21.30
2008,05,16,13,37,21.30
2008,05,16,13,38,21.30
2008,05,16,13,39,21.40
2008,05,16,13,40,21.40
2008,05,16,13,41,21.40
2008,05,16,13,42,21.30
2008,05,16,13,43,21.30
2008,05,16,13,44,21.40
2008,05,16,13,45,21.40
2008,05,16,13,46,21.40
2008,05,16,13,47,21.50
2008,05,16,13,48,21.60
2008,05,16,13,49,21.60
2008,05,16,13,50,21.60
2008,05,16,13,51,21.60
2008,05,16,13,52,21.60
2008,05,16,13,53,21.60
2008,05,16,13,54,21.60
2008,05,16,13,55,21.70
2008,05,16,13,56,21.80
2008,05,16,13,57,21.90
2008,05,16,13,58,21.90
2008,05,16,13,59,22.00
2008,05,16,14,00,22.00
2008,05,16,14,01,22.10
2008,05,16,14,02,22.20
2008,05,16,14,03,22.20
2008,05,16,14,04,22.30
2008,05,16,14,05,22.40
2008,05,16,14,06,22.50
2008,05,16,14,07,22.60
2008,05,16,14,08,22.60
2008,05,16,14,09,22.70
2008,05,16,14,10,22.70
2008,05,16,14,11,22.80
2008,05,16,14,12,22.70
2008,05,16,14,13,22.60
2008,05,16,14,14,22.40
2008,05,16,14,15,22.10
2008,05,16,14,16,21.90
2008,05,16,14,17,21.70
2008,05,16,14,18,21.60
2008,05,16,14,19,21.60
2008,05,16,14,20,21.60
2008,05,16,14,21,21.60
2008,05,16,14,22,21.70
2008,05,16,14,23,21.80
2008,05,16,14,24,21.90
2008,05,16,14,25,22.00
2008,05,16,14,26,22.00
2008,05,16,14,27,22.20
2008,05,16,14,28,22.40
2008,05,16,14,29,22.50
2008,05,16,14,30,22.60
2008,05,16,14,31,22.60
2008,05,16,14,32,22.80
2008,05,16,14,33,22.90
2008,05,16,14,34,23.10
2008,05,16,14,35,23.20
2008,05,16,14,36,23.30
2008,05,16,14,37,23.30
2008,05,16,14,38,23.30
2008,05,16,14,39,23.30
2008,05,16,14,40,23.30
2008,05,16,14,41,23.50
2008,05,16,14,42,23.60
2008,05,16,14,43,23.50
2008,05,16,14,44,23.40
2008,05,16,14,45,23.40
2008,05,16,14,46,23.40
2008,05,16,14,47,23.30
2008,05,16,14,48,23.40
2008,05,16,14,49,23.50
2008,05,16,14,50,23.60
2008,05,16,14,51,23.70
2008,05,16,14,52,23.70
2008,05,16,14,53,23.70
2008,05,16,14,54,23.70
2008,05,16,14,55,23.70
2008,05,16,14,56,23.70
2008,05,16,14,57,23.80
2008,05,16,14,58,23.90
2008,05,16,14,59,23.90
2008,05,16,15,00,23.90
2008,05,16,15,01,23.90
2008,05,16,15,02,23.90
2008,05,16,15,03,23.80
2008,05,16,15,04,23.80
2008,05,16,15,05,23.80
2008,05,16,15,06,23.80
2008,05,16,15,07,23.80
2008,05,16,15,08,23.90
2008,05,16,15,09,24.00
2008,05,16,15,10,24.10
2008,05,16,15,11,24.10
2008,05,16,15,12,24.20
2008,05,16,15,13,24.20
2008,05,16,15,14,24.20
2008,05,16,15,15,24.20
2008,05,16,15,16,24.20
2008,05,16,15,17,24.30
2008,05,16,15,18,24.30
2008,05,16,15,19,24.40
2008,05,16,15,20,24.50
2008,05,16,15,21,24.60
2008,05,16,15,22,24.70
2008,05,16,15,23,24.70
2008,05,16,15,24,24.70
2008,05,16,15,25,24.70
2008,05,16,15,26,24.80
2008,05,16,15,27,24.80
2008,05,16,15,28,24.70
2008,05,16,15,29,24.60
2008,05,16,15,30,24.70
2008,05,16,15,31,24.70
2008,05,16,15,32,24.70
2008,05,16,15,33,24.50
2008,05,16,15,34,24.30
2008,05,16,15,35,24.20
2008,05,16,15,36,24.10
2008,05,16,15,37,24.00
2008,05,16,15,38,24.00
2008,05,16,15,39,24.00
2008,05,16,15,40,23.90
2008,05,16,15,41,23.90
2008,05,16,15,42,23.90
2008,05,16,15,43,23.80
2008,05,16,15,44,23.80
2008,05,16,15,45,23.70
2008,05,16,15,46,23.70
2008,05,16,15,47,23.60
2008,05,16,15,48,23.60
2008,05,16,15,49,23.60
2008,05,16,15,50,23.60
2008,05,16,15,51,23.60
2008,05,16,15,52,23.70
2008,05,16,15,53,23.60
2008,05,16,15,54,23.60
2008,05,16,15,55,23.60
2008,05,16,15,56,23.50
2008,05,16,15,57,23.40
2008,05,16,15,58,23.40
2008,05,16,15,59,23.30
2008,05,16,16,00,23.30
2008,05,16,16,01,23.20
2008,05,16,16,02,23.20
2008,05,16,16,03,23.20
2008,05,16,16,04,23.30
2008,05,16,16,05,23.30
2008,05,16,16,06,23.30
2008,05,16,16,07,23.30
2008,05,16,16,08,23.30
2008,05,16,16,09,23.30
2008,05,16,16,10,23.40
2008,05,16,16,11,23.40
2008,05,16,16,12,23.30
2008,05,16,16,13,23.30
2008,05,16,16,14,23.30
2008,05,16,16,15,23.30
2008,05,16,16,16,23.30
2008,05,16,16,17,23.30
2008,05,16,16,18,23.40
2008,05,16,16,19,23.50
2008,05,16,16,20,23.60
2008,05,16,16,21,23.70
2008,05,16,16,22,23.70
2008,05,16,16,23,23.70
2008,05,16,16,24,23.70
2008,05,16,16,25,23.70
2008,05,16,16,26,23.80
2008,05,16,16,27,23.80
2008,05,16,16,28,23.70
2008,05,16,16,29,23.70
2008,05,16,16,30,23.80
2008,05,16,16,31,23.80
2008,05,16,16,32,23.80
2008,05,16,16,33,23.80
2008,05,16,16,34,23.70
2008,05,16,16,35,23.80
2008,05,16,16,36,23.80
2008,05,16,16,37,23.70
2008,05,16,16,38,23.70
2008,05,16,16,39,23.70
2008,05,16,16,40,23.70
2008,05,16,16,41,23.70
2008,05,16,16,42,23.80
2008,05,16,16,43,24.00
2008,05,16,16,44,24.10
2008,05,16,16,45,24.30
2008,05,16,16,46,24.40
2008,05,16,16,47,24.60
2008,05,16,16,48,24.70
2008,05,16,16,49,24.70
2008,05,16,16,50,24.60
2008,05,16,16,51,24.50
2008,05,16,16,52,24.40
2008,05,16,16,53,24.20
2008,05,16,16,54,24.10
2008,05,16,16,55,24.00
2008,05,16,16,56,23.90
2008,05,16,16,57,23.80
2008,05,16,16,58,23.90
2008,05,16,16,59,24.00
2008,05,16,17,00,24.10
2008,05,16,17,01,24.30
2008,05,16,17,02,24.30
2008,05,16,17,03,24.30
2008,05,16,17,04,24.30
2008,05,16,17,05,24.30
2008,05,16,17,06,24.20
2008,05,16,17,07,24.10
2008,05,16,17,08,24.10
2008,05,16,17,09,24.10
2008,05,16,17,10,23.90
2008,05,16,17,11,23.90
2008,05,16,17,12,23.80
2008,05,16,17,13,23.70
2008,05,16,17,14,23.70
2008,05,16,17,15,23.60
2008,05,16,17,16,23.60
2008,05,16,17,17,23.60
2008,05,16,17,18,23.60
2008,05,16,17,19,23.60
2008,05,16,17,20,23.70
2008,05,16,17,21,23.70
2008,05,16,17,22,23.70
2008,05,16,17,23,23.70
2008,05,16,17,24,23.70
2008,05,16,17,25,23.70
2008,05,16,17,26,23.70